Location: *
(49.7115°N, 15.0136°E)
Time: 09:16:35
(UTC+00:00)

STARLINK-1036 - Pass Details

Date: 27 February 2020
Orbit: 549 x 550 km, 53.0° (Epoch: 10 April)

Event Time Altitude Azimuth Distance (km) Brightness Sun altitude
Rises 17:04:54 0° 240° (WSW) 2,711 8.6 -5.1°
Reaches altitude 10° 17:07:07 10° 239° (WSW) 1,820 7.5 -5.5°
Maximum altitude 17:11:15 77° 153° (SSE) 568 3.7 -6.1°
Drops below altitude 10° 17:15:24 10° 69° (ENE) 1,828 5.7 -6.8°
Enters shadow 17:15:52 - 68° (ENE) 2,012 5.9 -6.9°
